Current Version              Previous Version:    01  02  03  04  05  06  07  08  09  10  11  12  13  14  15  16  17  18  19  20  21  22  23  24  25  26  27  28  29  30  
   31  32  33  34  35  36  37  38  39  40  41  42  43  44  45  46  47  48  49  50  51  52  53  54  55  56  57  58  59  60  

[Printable]
629
ASUS44 KFWD 200501
RWRTX
NORTH TEXAS HOURLY WEATHER ROUNDUP
NATIONAL WEATHER SERVICE FORT WORTH TX
1200 AM CDT SUN APR 20 2014

NOTE: "FAIR" INDICATES FEW OR NO CLOUDS BELOW 12,000 FEET WITH NO
SIGNIFICANT WEATHER AND/OR OBSTRUCTIONS TO VISIBILITY.

TXZ118-119-200600-
DALLAS/FORT WORTH METROPLEX

CITY           SKY/WX    TMP DP  RH WIND       PRES   REMARKS
DFW AIRPORT    MOCLDY    65  53  65 S7        30.11F
DALLAS LOVE    MOCLDY    67  53  61 SE8       30.12S
FTW MEACHAM    MOCLDY    66  54  65 SE8       30.11F
DAL-EXECUTIVE  MOCLDY    64  53  67 CALM      30.12S
FTW-ALLIANCE   MOCLDY    62  53  72 S5        30.11F
FTW-NAS-JRB    MOCLDY    68  51  54 VRB7      30.15F
ARLINGTON      PTCLDY    61  54  77 SE3       30.11F
LANCASTER      PTCLDY    59  51  74 CALM      30.14S
$$

TXZ091>094-102>105-117-120-121-131>134-200600-
NORTH CENTRAL TEXAS

CITY           SKY/WX    TMP DP  RH WIND       PRES   REMARKS
DENTON         MOCLDY    63  53  70 SE6       30.11F
MCKINNEY       PTCLDY    59  53  80 CALM      30.13R
GREENVILLE     MOCLDY    59  52  77 CALM      30.14R
ROCKWALL       PTCLDY    63  53  70 E5        30.12S
TERRELL        MOCLDY    59  57  93 NE3       30.14R
$$

TXZ083>090-098>101-113>116-127>130-139>142-154-155-200600-
WESTERN NORTH TEXAS

CITY           SKY/WX    TMP DP  RH WIND       PRES   REMARKS
WICHITA FALLS  CLOUDY    67  51  56 S16       30.07S
ABILENE        CLOUDY    68  50  52 SE12      30.12R
BRECKENRIDGE   CLOUDY    69  51  52 S10       30.13R
MINERAL WELLS  CLOUDY    62  53  72 SE7       30.10S
BROWNWOOD      CLOUDY    64  54  68 SE7       30.11S
$$

TXZ143>147-156>162-174-175-200600-
CENTRAL TEXAS

CITY           SKY/WX    TMP DP  RH WIND       PRES   REMARKS
WACO           MOCLDY    58  53  84 CALM      30.11F
WACO-MCGREGOR  MOCLDY    55  48  76 CALM      30.13F
CORSICANA      CLOUDY    65  56  72 SE5       30.14R
MEXIA          MOCLDY    62  54  75 CALM      30.12S
TEMPLE         MOCLDY    63  52  67 SE5       30.15S
KILLEEN        PTCLDY    64  54  68 SE5       30.11F
KILLEEN-SKYLRK CLOUDY    64  54  68 SE6       30.11S
LAMPASAS       CLOUDY    62  55  77 CALM      30.11S
$$

TXZ095>097-106>112-122>126-135>138-148>153-164>167-200600-
EAST TEXAS

CITY           SKY/WX    TMP DP  RH WIND       PRES   REMARKS
PARIS          CLEAR     61  52  72 SE7       30.14R
TYLER          PTCLDY    64  55  72 W5        30.14R
LONGVIEW       PTCLDY    60  54  80 CALM      30.13R
ATHENS         MOCLDY    59  55  88 CALM      30.13S
NACOGDOCHES    MOCLDY    57  54  88 CALM      30.15R
LUFKIN         MOCLDY    66  57  72 S5        30.14R
$$

SUPPLEMENTAL OBSERVATIONS (CENTRAL)

CITY           SKY/WX    TMP DP  RH WIND       PRES   REMARKS
$$

SUPPLEMENTAL OBSERVATIONS (WEST)

CITY           SKY/WX    TMP DP  RH WIND       PRES   REMARKS
$$

SUPPLEMENTAL OBSERVATIONS (EAST)

CITY           SKY/WX    TMP DP  RH WIND       PRES   REMARKS
$$

SUPPLEMENTAL OBSERVATIONS ARE A COLLECTION OF AUTOMATED INSTRUMENTS
THAT ARE MAINTAINED BY A VARIETY OF FEDERAL AND STATE AGENCIES.
CERTAIN ELEMENTS...SUCH AS HUMIDITY VALUES AND SUSTAINED WIND
SPEEDS...MAY BE APPROXIMATED.